DW7379 Weather Reports


time (UTC)temp
C
wind
direction
speed
KPH
gust
KPH
rain 1hr
cm
rain 24hr
cm
rain mn
cm
humidity
%
barometer
mb
20260505140403 16 19 4.8 8.0 0.00 0.00 0.00 62 1011.5
20260505124903 15 38 9.7 19.3 0.00 0.00 0.00 63 1011.9
20260505124403 16 47 8.0 19.3 0.00 0.00 0.00 63 1012.0
20260505123904 16 34 8.0 19.3 0.00 0.00 0.00 64 1012.0
20260505122904 15 35 12.9 19.3 0.00 0.00 0.00 64 1012.0
20260505122405 15 30 8.0 19.3 0.00 0.00 0.00 64 1011.9
20260505121904 15 10 9.7 19.3 0.00 0.00 0.00 65 1011.9
20260505121404 15 19 8.0 16.1 0.00 0.00 0.00 65 1011.9
20260505120903 15 23 11.3 20.9 0.00 0.00 0.00 65 1011.9
20260505115903 15 45 8.0 19.3 0.00 0.00 0.00 65 1012.0
20260505115405 15 32 12.9 22.5 0.00 0.00 0.00 65 1012.0
20260505114904 15 39 9.7 19.3 0.00 0.00 0.00 66 1012.0
20260505114404 15 46 9.7 19.3 0.00 0.00 0.00 65 1012.0
20260505113904 15 37 9.7 19.3 0.00 0.00 0.00 65 1012.0
20260505113404 15 48 9.7 22.5 0.00 0.00 0.00 64 1012.0
20260505112904 15 47 11.3 20.9 0.00 0.00 0.00 64 1012.0
20260505112404 15 26 11.3 22.5 0.00 0.00 0.00 63 1012.0
20260505111904 16 32 14.5 22.5 0.00 0.00 0.00 61 1012.1
20260505111403 16 36 8.0 22.5 0.00 0.00 0.00 62 1012.0
20260505110404 15 13 8.0 25.7 0.00 0.00 0.00 64 1012.1
20260505101903 15 28 11.3 20.9 0.00 0.00 0.00 65 1012.4
20260505100905 15 25 9.7 22.5 0.00 0.00 0.00 66 1012.4
20260505095903 15 20 11.3 24.1 0.00 0.00 0.00 67 1012.4
20260505095405 15 21 12.9 24.1 0.00 0.00 0.00 66 1012.4
20260505094904 15 34 9.7 24.1 0.00 0.00 0.00 67 1012.4
20260505094405 15 35 12.9 24.1 0.00 0.00 0.00 67 1012.5
20260505093904 15 29 8.0 19.3 0.00 0.00 0.00 68 1012.5
20260505093404 15 35 8.0 19.3 0.00 0.00 0.00 67 1012.5
20260505092405 15 3 6.4 19.3 0.00 0.00 0.00 66 1012.4
20260505091903 16 29 9.7 19.3 0.00 0.00 0.00 66 1012.4
20260505091404 15 41 9.7 19.3 0.00 0.00 0.00 66 1012.5
20260505090904 15 32 11.3 19.3 0.00 0.00 0.00 66 1012.5
20260505085904 15 44 9.7 19.3 0.00 0.00 0.00 68 1012.6
20260505085404 15 27 9.7 22.5 0.00 0.00 0.00 67 1012.7
20260505084904 15 13 14.5 25.7 0.00 0.00 0.00 68 1012.7
20260505083904 15 28 9.7 22.5 0.00 0.00 0.00 69 1012.7
20260505082904 14 33 9.7 20.9 0.00 0.00 0.00 71 1012.6
20260505082404 15 20 11.3 19.3 0.00 0.00 0.00 70 1012.6
20260505081905 15 6 9.7 16.1 0.00 0.00 0.00 71 1012.6
20260505081404 14 6 9.7 19.3 0.00 0.00 0.00 69 1012.6
20260505075904 15 28 11.3 20.9 0.00 0.00 0.00 68 1012.6
20260505074904 14 28 8.0 14.5 0.00 0.00 0.00 71 1012.5
20260505074404 14 48 6.4 14.5 0.00 0.00 0.00 71 1012.5
20260505073904 14 49 3.2 11.3 0.00 0.00 0.00 76 1012.5
20260505073404 13 60 4.8 14.5 0.00 0.00 0.00 77 1012.5
20260505072903 13 26 4.8 14.5 0.00 0.00 0.00 78 1012.4
20260505072404 13 32 3.2 9.7 0.00 0.00 0.00 81 1012.4
20260505071905 12 30 4.8 14.5 0.00 0.00 0.00 82 1012.5
20260505071404 12 35 6.4 14.5 0.00 0.00 0.00 83 1012.6
20260505070904 12 32 8.0 14.5 0.00 0.00 0.00 83 1012.6
20260505070405 12 50 4.8 16.1 0.00 0.00 0.00 84 1012.6
20260505065905 12 40 8.0 16.1 0.00 0.00 0.00 84 1012.7
20260505065404 12 19 6.4 14.5 0.00 0.00 0.00 84 1012.7
20260505064904 12 5 4.8 9.7 0.00 0.00 0.00 85 1012.8
20260505064404 11 9 3.2 14.5 0.00 0.00 0.00 85 1012.8
20260505063904 11 39 3.2 8.0 0.00 0.00 0.00 85 1012.8
20260505062404 11 16 4.8 9.7 0.00 0.00 0.00 86 1013.0
20260505061405 11 16 6.4 14.5 0.00 0.00 0.00 85 1012.9
20260505060904 11 21 4.8 12.9 0.00 0.00 0.00 85 1012.9
20260505060403 11 15 4.8 9.7 0.00 0.00 0.00 86 1012.8
20260505055403 11 50 4.8 12.9 0.00 0.00 0.00 85 1012.8
20260505054904 11 20 4.8 14.5 0.00 0.00 0.00 85 1012.7
20260505053904 11 20 8.0 14.5 0.00 0.00 0.00 85 1012.7
20260505053403 11 7 8.0 12.9 0.00 0.00 0.00 85 1012.6
20260505052904 11 10 8.0 14.5 0.00 0.00 0.00 85 1012.6
20260505052404 11 15 4.8 11.3 0.00 0.00 0.00 85 1012.7
20260505051404 12 47 4.8 4.8 0.00 0.00 0.00 85 1012.6
20260505050904 12 34 4.8 9.7 0.00 0.00 0.00 85 1012.5
20260505050404 12 54 4.8 9.7 0.00 0.00 0.00 85 1012.6
20260505041406 12 35 4.8 9.7 0.00 0.00 0.00 84 1012.6
20260505040903 12 39 3.2 11.3 0.00 0.00 0.00 84 1012.6
20260505040403 12 12 6.4 14.5 0.00 0.00 0.00 84 1012.6
20260505035405 12 34 4.8 11.3 0.00 0.00 0.00 84 1012.7
20260505034903 12 47 4.8 12.9 0.00 0.00 0.00 83 1012.7
20260505034404 12 33 3.2 9.7 0.00 0.00 0.00 83 1012.7
20260505033904 12 17 6.4 9.7 0.00 0.00 0.00 83 1012.8
20260505033404 12 26 6.4 11.3 0.00 0.00 0.00 83 1012.8
20260505032904 12 39 6.4 12.9 0.00 0.00 0.00 83 1012.8
20260505032404 12 34 4.8 11.3 0.00 0.00 0.00 83 1012.7
20260505031903 12 39 4.8 11.3 0.00 0.00 0.00 83 1012.8
20260505031405 12 76 1.6 4.8 0.00 0.00 0.00 83 1012.9
20260505030905 12 55 3.2 9.7 0.00 0.00 0.00 83 1012.9
20260505030403 12 55 3.2 4.8 0.00 0.00 0.00 83 1012.9
20260505025904 12 40 1.6 8.0 0.00 0.00 0.00 82 1012.9
20260505025403 12 64 3.2 4.8 0.00 0.00 0.00 82 1012.9
20260505024904 12 75 1.6 9.7 0.00 0.00 0.00 82 1012.9
20260505024403 12 60 4.8 9.7 0.00 0.00 0.00 82 1012.9
20260505023904 12 46 3.2 8.0 0.00 0.00 0.00 82 1012.9
20260505023404 13 64 3.2 4.8 0.00 0.00 0.00 82 1012.8
20260505022904 13 64 3.2 9.7 0.00 0.00 0.00 82 1012.8
20260505022404 13 44 3.2 9.7 0.00 0.00 0.00 82 1012.9
20260505021904 13 40 4.8 11.3 0.00 0.00 0.00 82 1012.9
20260505021405 13 44 1.6 4.8 0.00 0.00 0.00 82 1012.9
20260505020904 13 50 3.2 4.8 0.00 0.00 0.00 82 1012.9
20260505020404 13 46 3.2 9.7 0.00 0.00 0.00 82 1012.9
20260505015903 13 30 3.2 8.0 0.00 0.00 0.00 82 1013.0
20260505015404 13 39 1.6 4.8 0.00 0.00 0.00 82 1013.1
20260505014903 13 60 4.8 11.3 0.00 0.00 0.00 82 1013.1
20260505014404 13 43 3.2 12.9 0.00 0.00 0.00 82 1013.3
20260505013904 13 48 4.8 12.9 0.00 0.00 0.00 82 1013.3
20260505013403 13 48 4.8 14.5 0.00 0.00 0.00 82 1013.2
20260505012904 13 52 3.2 12.9 0.00 0.00 0.00 82 1013.3
20260505012405 13 40 6.4 12.9 0.00 0.00 0.00 82 1013.3
20260505011904 13 45 8.0 12.9 0.00 0.00 0.00 83 1013.3
20260505011404 13 28 6.4 12.9 0.00 0.00 0.00 83 1013.3
20260505010903 13 41 4.8 11.3 0.00 0.00 0.00 83 1013.4
20260505010404 13 20 3.2 4.8 0.00 0.00 0.00 83 1013.4
20260505005403 13 21 3.2 9.7 0.00 0.00 0.00 84 1013.3
20260505004903 13 42 4.8 9.7 0.00 0.00 0.00 84 1013.4
20260505004403 13 42 3.2 9.7 0.00 0.00 0.00 84 1013.5
20260505003903 13 40 3.2 11.3 0.00 0.00 0.00 85 1013.6
20260505003404 13 32 3.2 14.5 0.00 0.00 0.00 85 1013.6
20260505002905 13 30 3.2 4.8 0.00 0.00 0.00 86 1013.5
20260505002403 13 107 0.0 3.2 0.00 0.00 0.00 87 1013.5
20260505001404 13 107 0.0 4.8 0.00 0.00 0.00 87 1013.5
20260505000903 13 107 0.0 4.8 0.00 0.00 0.00 86 1013.6
20260505000405 13 107 0.0 4.8 0.00 0.00 0.00 87 1013.6
20260504235906 13 107 3.2 4.8 0.00 0.00 0.00 87 1013.7
20260504235404 13 107 1.6 4.8 0.00 0.00 0.00 86 1013.8
20260504234904 13 107 1.6 3.2 0.00 0.00 0.00 86 1013.8
20260504234405 13 107 0.0 3.2 0.00 0.00 0.00 86 1013.6
20260504233903 13 107 0.0 3.2 0.00 0.00 0.00 86 1013.6
20260504233404 13 107 0.0 4.8 0.00 0.00 0.00 86 1013.6
20260504232904 13 107 0.0 0.0 0.00 0.00 0.00 86 1013.6
20260504232404 13 107 0.0 0.0 0.00 0.00 0.00 86 1013.6
20260504231905 13 107 0.0 3.2 0.00 0.00 0.00 86 1013.6
20260504231404 13 107 1.6 4.8 0.00 0.00 0.00 86 1013.6
20260504230403 13 107 0.0 1.6 0.00 0.00 0.00 85 1013.7
20260504225904 13 107 0.0 1.6 0.00 0.00 0.00 85 1013.7
20260504225405 13 107 1.6 4.8 0.00 0.00 0.00 85 1013.7
20260504224905 13 107 0.0 3.2 0.00 0.00 0.00 85 1013.7
20260504224404 13 107 0.0 3.2 0.00 0.00 0.00 85 1013.8
20260504223904 13 107 0.0 3.2 0.00 0.00 0.00 85 1013.8
20260504223404 13 107 0.0 1.6 0.00 0.00 0.00 85 1013.8
20260504222903 13 107 1.6 4.8 0.00 0.00 0.00 85 1013.8
20260504222404 13 107 1.6 4.8 0.00 0.00 0.00 85 1013.9
20260504221405 13 107 0.0 3.2 0.00 0.00 0.00 85 1013.9
20260504220904 13 107 0.0 3.2 0.00 0.00 0.00 84 1013.9
20260504220403 13 107 3.2 4.8 0.00 0.00 0.00 84 1014.0
20260504215904 13 107 3.2 4.8 0.00 0.00 0.00 84 1014.0
20260504214904 13 106 3.2 4.8 0.00 0.00 0.00 83 1014.1
20260504214405 13 123 4.8 4.8 0.00 0.00 0.00 83 1014.0
20260504213404 13 79 1.6 4.8 0.00 0.00 0.00 83 1014.0
20260504212905 14 95 3.2 4.8 0.00 0.00 0.00 82 1014.0
20260504212404 14 112 4.8 9.7 0.00 0.00 0.00 82 1014.1
20260504211403 14 89 3.2 11.3 0.00 0.00 0.00 83 1014.0
20260504210904 14 40 1.6 4.8 0.00 0.00 0.00 83 1013.9
20260504210404 14 15 1.6 4.8 0.00 0.00 0.00 84 1013.9
20260504205904 14 24 0.0 4.8 0.00 0.00 0.00 84 1013.9
20260504205404 14 17 4.8 9.7 0.00 0.00 0.00 84 1013.9
20260504203904 14 330 0.0 4.8 0.00 0.00 0.00 81 1013.8
20260504203404 14 343 1.6 4.8 0.00 0.00 0.00 81 1013.8
20260504202904 14 98 0.0 3.2 0.00 0.00 0.00 81 1013.8
20260504202404 14 98 0.0 0.0 0.00 0.00 0.00 81 1013.9
20260504201904 14 98 0.0 0.0 0.00 0.00 0.00 81 1013.9
20260504201404 14 98 0.0 0.0 0.00 0.00 0.00 81 1013.9
20260504200904 14 98 0.0 3.2 0.00 0.00 0.00 80 1013.9
20260504200405 15 98 1.6 4.8 0.00 0.00 0.00 80 1013.8
20260504195904 15 98 1.6 4.8 0.00 0.00 0.00 80 1013.7
20260504194904 15 100 3.2 4.8 0.00 0.00 0.00 79 1013.7
20260504194404 15 112 3.2 4.8 0.00 0.00 0.00 79 1013.7
20260504193904 15 104 1.6 4.8 0.00 0.00 0.00 79 1013.7
20260504193403 15 313 1.6 3.2 0.00 0.00 0.00 79 1013.7
20260504192905 15 313 0.0 1.6 0.00 0.00 0.00 79 1013.6
20260504192403 15 313 0.0 1.6 0.00 0.00 0.00 79 1013.6
20260504191904 15 313 0.0 3.2 0.00 0.00 0.00 79 1013.6
20260504191404 15 313 0.0 4.8 0.00 0.00 0.00 79 1013.5
20260504190905 15 303 0.0 4.8 0.00 0.00 0.00 79 1013.5
20260504190405 15 96 0.0 4.8 0.00 0.00 0.00 79 1013.4
20260504185404 15 96 3.2 4.8 0.00 0.00 0.00 78 1013.5
20260504184904 15 96 1.6 4.8 0.00 0.00 0.00 77 1013.4
20260504184403 15 99 4.8 4.8 0.00 0.00 0.00 77 1013.4
20260504183904 15 100 3.2 4.8 0.00 0.00 0.00 77 1013.4
20260504183404 15 117 3.2 4.8 0.00 0.00 0.00 77 1013.4
20260504182405 15 68 1.6 4.8 0.00 0.00 0.00 77 1013.3
20260504181903 15 101 3.2 9.7 0.00 0.00 0.00 76 1013.4
20260504181404 15 104 3.2 4.8 0.00 0.00 0.00 76 1013.4
20260504180904 15 98 3.2 4.8 0.00 0.00 0.00 76 1013.4
20260504175904 16 103 3.2 4.8 0.00 0.00 0.00 75 1013.3
20260504174903 16 98 3.2 4.8 0.00 0.00 0.00 75 1013.3
20260504174405 16 100 4.8 9.7 0.00 0.00 0.00 75 1013.3
20260504173905 16 121 3.2 4.8 0.00 0.00 0.00 74 1013.3
20260504173403 16 96 3.2 4.8 0.00 0.00 0.00 74 1013.3
20260504172904 16 138 4.8 9.7 0.00 0.00 0.00 73 1013.3
20260504172404 16 146 6.4 9.7 0.00 0.00 0.00 73 1013.2
20260504171903 16 140 4.8 9.7 0.00 0.00 0.00 73 1013.3
20260504171405 16 104 4.8 9.7 0.00 0.00 0.00 73 1013.3
20260504170903 16 144 6.4 9.7 0.00 0.00 0.00 72 1013.3
20260504170403 17 140 4.8 9.7 0.00 0.00 0.00 72 1013.3
20260504160405 17 117 8.0 14.5 0.00 0.00 0.00 71 1013.4
20260504150404 19 127 8.0 19.3 0.00 0.00 0.00 64 1013.3